Regional Weather Roundup
Issued by NWS

Home | Current Version | Previous Version | Text Only | Print | Product List | Glossary Off
Versions: 1 2 3 4 5 6 7 8 9 10 11 12 13 14 15 16 17 18 19 20 21 22 23 24 25 26 27 28 29 30 31 32 33 34 35 36 37 38 39 40 41 42 43 44 45 46 47 48 49 50

000
ASUS43 KFSD 011810
RWRSD

WEATHER ROUNDUP FOR SOUTH DAKOTA
NATIONAL WEATHER SERVICE SIOUX FALLS SD
100 PM CDT TUE SEP 01 2015

NOTE: "FAIR" INDICATES FEW OR NO CLOUDS BELOW 12,000 FEET WITH NO
SIGNIFICANT WEATHER AND/OR OBSTRUCTIONS TO VISIBILITY.


SDZ001>005-009-010-012>017-011900-
NORTHWEST AND NORTH CENTRAL SOUTH DAKOTA

CITY           SKY/WX    TMP DP  RH WIND       PRES   REMARKS
BUFFALO          N/A     79  61  53 E3        29.80F
FAITH            N/A     81  59  47 SE10      29.84F
MOBRIDGE       SUNNY     83  66  56 SE16      29.81F
$$

SDZ012>016-024>037-041>051-057-063-072>074-011900-
SOUTHWEST AND SOUTH CENTRAL SOUTH DAKOTA

CITY           SKY/WX    TMP DP  RH WIND       PRES   REMARKS
RAPID CTY ARPT SUNNY     78  61  55 VRB5      29.88F
PIERRE         SUNNY     87  66  49 SE9       29.79F
CUSTER         SUNNY     80  33  18 W12       30.03S
ELLSWORTH AFB  SUNNY     77  59  53 SE6       29.87F
PHILIP         SUNNY     86  61  42 SE9       29.82F
PINE RIDGE     SUNNY     88  47  24 SW9       29.90F
WINNER         FAIR      85  61  44 S17       29.86F
$$

SDZ004>011-016>023-039-040-011900-
NORTHEAST SOUTH DAKOTA

CITY           SKY/WX    TMP DP  RH WIND       PRES   REMARKS
ABERDEEN       PTSUNNY   79  71  76 S15       29.87F
WATERTOWN      CLOUDY    76  70  82 S7        29.91F
BROOKINGS      CLOUDY    72  68  88 E7        29.91F
SISSETON         N/A     82  67  60 S9        29.86F
$$

SDZ017-020-022-023-036>040-048>070-011900-
SOUTHEAST SOUTH DAKOTA

CITY           SKY/WX    TMP DP  RH WIND       PRES   REMARKS
SIOUX FALLS    PTSUNNY   79  70  74 E9        29.89F
HURON          CLOUDY    76  70  82 VRB3      29.83F
CHAMBERLAIN    CLOUDY    73  69  87 SE6       29.85F
MITCHELL       CLOUDY    76  72  87 E8        29.85F
YANKTON        CLOUDY    79  70  73 E6        29.86F
$$

ABBREVIATIONS USED IN REMARKS
   TC - TEMPERATURE IN CELSIUS
  WCI - WIND CHILL INDEX
   HX - HEAT INDEX
  VSB - VISIBILITY




USA.gov is the U.S. government's official web portal to all federal, state and local government web resources and services.